Location: Dyersburg
(36.0438°N, 89.3789°W)
Time: 18:55:35
(UTC+00:00)

S-56A Canister/Altair - Visible Passes

Search period start: 16 February 2020 00:00
Search period end: 26 February 2020 00:00
Orbit: 633 x 2499 km, 38.9° (Epoch: 16 February)

Date Brightness Start Highest point End Pass type
(mag) Time Alt. Az. Time Alt. Az. Time Alt. Az.
16 Feb 9.7 01:23:05 10° WNW 01:32:14 39° SW 01:37:31 15° SSE visible
17 Feb 9.7 00:49:15 10° WNW 00:59:29 47° SW 01:06:22 10° SSE visible
18 Feb 9.7 00:15:23 10° WNW 00:26:39 54° SW 00:34:07 10° SE visible
18 Feb 10.7 02:25:54 10° WSW 02:29:14 13° SW 02:32:09 10° SSW visible
19 Feb 10.6 01:50:59 10° W 01:56:40 17° SW 02:01:17 10° SSW visible
20 Feb 10.6 01:16:33 10° W 01:24:03 22° SW 01:29:48 10° S visible
21 Feb 10.6 00:42:19 10° W 00:51:22 28° SW 00:58:03 10° S visible
22 Feb 10.7 00:08:11 10° WNW 00:18:35 33° SW 00:26:05 10° SSE visible
24 Feb 11.4 01:14:12 10° WSW 01:15:23 10° WSW 01:16:30 10° SW visible
25 Feb 11.4 00:37:18 10° W 00:42:41 14° WSW 00:47:20 10° SSW visible
